De Soto, IL

5:03 AM CDT on August 27, 2016 (GMT -0500)
Southern Illinois

Weather History for KMDH - February, 2014

Change the Weather History Date:

Monday, February 10, 2014

  Actual Average Record
Temperature  
Mean Temperature 14 °F -  
Max Temperature 19 °F 43 °F 78 °F (1932)
Min Temperature 8 °F 20 °F -10 °F (1982)
Degree Days  
Heating Degree Days 51    
Moisture  
Dew Point 3 °F    
Average Humidity 60    
Maximum Humidity 71    
Minimum Humidity 51    
Precipitation  
Precipitation 0.00 in - - ()
Sea Level Pressure  
Sea Level Pressure 30.45 in    
Wind  
Wind Speed 11 mph (North)    
Max Wind Speed 14 mph    
Max Gust Speed -    
Visibility 10 miles    
Events      
Averages and records for this station are not official NWS values.
T = Trace of Precipitation, MM = Missing Value Source: NWS Daily Summary

Daily Weather History Graph

Daily Weather History Graph

Search for Another Location

Airport or City:

Trip Planner

Search our weather history database for the weather conditions in past years. The results will help you decide how hot, cold, wet, or windy it might be!

Date:

Astronomy

Feb. 10, 2014 Rise Set
Actual Time 6:52 AM CST 5:30 PM CST
Civil Twilight 6:25 AM CST 5:57 PM CST
Nautical Twilight 5:54 AM CST 6:28 PM CST
Astronomical Twilight 5:23 AM CST 6:59 PM CST
Moon 2:01 PM CST (2/10) 3:43 AM CST (2/10)
Length of Visible Light 11h 32m
Length of Day
10h 38m
Waxing Gibbous, 85% of the Moon is Illuminated
Feb 10
Waxing Gibbous
Feb 14
Full
Feb 22
Last Quarter
Mar 1
New
Mar 8
First Quarter

Hourly Weather History & Observations

Time (CST) Temp. Windchill Dew Point Humidity Pressure Visibility Wind Dir Wind Speed Gust Speed Precip Events Conditions
12:52 AM 19.9 °F 7.9 °F 12.0 °F 71% 30.36 in 10.0 mi North 11.5 mph - N/A   Overcast
1:52 AM 19.9 °F 8.6 °F 10.0 °F 65% 30.36 in 10.0 mi North 10.4 mph - N/A   Overcast
2:52 AM 19.9 °F 8.6 °F 10.0 °F 65% 30.36 in 10.0 mi NNE 10.4 mph - N/A   Clear
3:52 AM 19.0 °F 8.2 °F 10.0 °F 68% 30.37 in 10.0 mi NNE 9.2 mph - N/A   Partly Cloudy
4:52 AM 18.0 °F 4.2 °F 8.1 °F 65% 30.39 in 10.0 mi North 13.8 mph - N/A   Mostly Cloudy
5:52 AM 15.1 °F 0.5 °F 5.0 °F 64% 30.42 in 10.0 mi North 13.8 mph - N/A   Overcast
6:52 AM 12.9 °F -1.6 °F 3.0 °F 65% 30.45 in 10.0 mi North 12.7 mph - N/A   Overcast
7:52 AM 12.0 °F -1.3 °F 1.9 °F 64% 30.46 in 10.0 mi NNW 10.4 mph - N/A   Mostly Cloudy
8:52 AM 10.9 °F -4.1 °F 1.0 °F 64% 30.49 in 10.0 mi NNW 12.7 mph - N/A   Mostly Cloudy
9:52 AM 12.0 °F -2.0 °F 1.0 °F 61% 30.50 in 10.0 mi NNW 11.5 mph - N/A   Overcast
10:52 AM 14.0 °F 2.0 °F 3.0 °F 62% 30.49 in 10.0 mi NNW 9.2 mph - N/A   Partly Cloudy
11:52 AM 15.1 °F 2.5 °F 3.0 °F 59% 30.48 in 10.0 mi NNW 10.4 mph - N/A   Mostly Cloudy
12:52 PM 16.0 °F 5.3 °F 3.0 °F 57% 30.45 in 10.0 mi NW 8.1 mph - N/A   Clear
1:52 PM 17.1 °F 5.8 °F 3.0 °F 54% 30.45 in 10.0 mi North 9.2 mph - N/A   Clear
2:52 PM 18.0 °F 6.9 °F 3.9 °F 54% 30.45 in 10.0 mi NNW 9.2 mph - N/A   Clear
3:52 PM 17.1 °F 5.0 °F 1.9 °F 52% 30.45 in 10.0 mi North 10.4 mph - N/A   Clear
4:52 PM 15.1 °F 1.8 °F -0.0 °F 51% 30.46 in 10.0 mi North 11.5 mph - N/A   Clear
5:52 PM 12.9 °F 1.6 °F -0.0 °F 56% 30.48 in 10.0 mi North 8.1 mph - N/A   Scattered Clouds
6:52 PM 12.0 °F 0.5 °F -0.0 °F 59% 30.49 in 10.0 mi North 8.1 mph - N/A   Clear
7:52 PM 10.9 °F -0.8 °F -0.9 °F 59% 30.51 in 10.0 mi NNW 8.1 mph - N/A   Clear
8:52 PM 10.0 °F -3.7 °F -2.0 °F 58% 30.50 in 10.0 mi North 10.4 mph - N/A   Clear
9:52 PM 10.0 °F -3.7 °F -2.0 °F 58% 30.52 in 10.0 mi NNE 10.4 mph - N/A   Clear
10:52 PM 9.0 °F -5.1 °F -4.0 °F 56% 30.51 in 10.0 mi North 10.4 mph - N/A   Clear
11:52 PM 8.1 °F -5.3 °F -2.9 °F 61% 30.51 in 10.0 mi North 9.2 mph - N/A   Clear